Location: ????
(55.5675°N, 37.6272°E)
Time: 07:10:52
(UTC+00:00)

Cosmos 1937 Rocket - Pass Details

Date: 14 April 2026
Orbit: 742 x 775 km, 74.0° (Epoch: 12 May)

Event Time Altitude Azimuth Distance (km) Brightness Sun altitude
Rises 17:23:12 0° 205° (SSW) 3,244 6.7 -7.3°
Reaches altitude 10° 17:25:35 10° 205° (SSW) 2,321 6.0 -7.6°
Maximum altitude 17:30:52 89° 115° (ESE) 783 3.6 -8.3°
Drops below altitude 10° 17:36:11 10° 28° (NNE) 2,327 6.1 -8.9°
Sets 17:38:34 0° 29° (NNE) 3,254 6.8 -9.2°
